[[{"header":{"parameterUnit":"m.s-1","parameterCategory":1,"la1":30.2991,"la2":30.254,"lo1":-89.0895,"lo2":-89.0444,"dy":0.0017,"dx":0.0017,"nx":28,"ny":28,"refTime":"2025-12-13T03:00:00:Z","depth":0,"parameterNumber":2,"parameterNumberName":"U-component_of_WINDS"},"data":[0,0,0,0,0,0,0,0,0,0,0,0,0,0,0,0,0,0,0,0,0,0,0,0,0,0,0,0,0,0,0,0,0,0,0,0,0,0,0,0,0,0,0,0,0,0,0,0,0,0,0,0,0,0,0,0,0,0,-1.9411,-1.9412,0,-1.9471,-1.9472,-1.9473,-1.9447,-1.9446,-1.9445,-1.9443,-1.9505,-1.9508,-1.9511,0,0,0,0,0,0,0,0,0,0,0,0,0,-1.9274,-1.9276,-1.9411,-1.9412,-1.9412,-1.9471,-1.9472,-1.9473,-1.9448,-1.9446,-1.9444,-1.9443,-1.9504,-1.9507,-1.9511,0,0,0,0,0,0,0,0,0,0,0,0,0,-1.9334,-1.9277,-1.9411,-1.9407,-1.9407,-1.9471,-1.9472,-1.9473,-1.9448,-1.9446,-1.9444,-1.9442,-1.9503,-1.9507,-1.9511,-1.9582,0,0,-1.9525,-1.9527,0,0,0,0,0,0,0,0,-1.933,-1.9339,-1.9407,-1.9407,-1.9408,-1.945,-1.9446,-1.951,-1.9449,-1.9433,-1.9443,-1.9441,-1.9488,-1.9494,-1.951,-1.9585,-1.9588,-1.9526,-1.9528,-1.953,-1.9531,0,0,0,0,0,0,0,-1.9326,-1.9336,-1.9435,-1.9408,-1.9408,-1.9402,-1.9408,-1.9458,-1.9472,-1.9434,-1.9432,-1.944,-1.9488,-1.9506,-1.9511,-1.9589,-1.9525,-1.9529,-1.9532,-1.9534,-1.9725,-1.9727,0,0,0,0,0,0,-1.9322,-1.9333,-1.9433,-1.9437,-1.9363,-1.9406,-1.9413,-1.9438,-1.9471,-1.9474,-1.9441,-1.9438,-1.9499,-1.9506,-1.9513,-1.9597,-1.953,-1.9534,-1.9537,-1.9722,-1.9725,-1.9728,0,0,0,0,0,0,-1.9319,-1.9331,-1.943,-1.9384,-1.9396,-1.9411,-1.9439,-1.9441,-1.9458,-1.9477,-1.9479,-1.9457,-1.9498,-1.9507,-1.9565,-1.9599,-1.9536,-1.954,-1.972,-1.9723,-1.9727,-1.9767,0,0,0,0,0,0,-1.9315,-1.933,-1.9357,-1.9385,-1.9399,-1.9482,-1.9442,-1.9443,-1.9466,-1.9462,-1.9492,-1.9495,-1.9497,-1.9559,-1.957,-1.9604,-1.9544,-1.9717,-1.9721,-1.9725,-1.9763,-1.9772,-1.9779,0,0,0,0,0,-1.9311,-1.9366,-1.9359,-1.9371,-1.9433,-1.9484,-1.9491,-1.9492,-1.9469,-1.9496,-1.9508,-1.9494,-1.9594,-1.9565,-1.9577,-1.9613,-1.9714,-1.972,-1.9725,-1.9759,-1.977,-1.9779,0,0,0,0,0,0,-1.9342,-1.937,-1.9362,-1.9428,-1.9454,-1.9479,-1.9513,-1.9504,-1.9537,-1.9532,-1.9532,-1.9539,-1.9599,-1.9612,-1.9579,-1.9684,-1.9651,-1.9659,-1.9672,-1.9683,-1.9691,-1.9686,-1.9548,0,0,0,0,0,-1.9357,-1.9396,-1.9418,-1.9475,-1.9488,-1.9499,-1.9521,-1.9519,-1.9546,-1.9556,-1.9572,-1.9598,-1.9636,-1.966,-1.9696,-1.9765,-1.9771,-1.9796,-1.9804,-1.9811,-1.9818,-1.9855,-1.9866,-1.9746,-1.9745,-1.9745,0,0,-1.9388,-1.9408,-1.9432,-1.9482,-1.9501,-1.9541,-1.9508,-1.9551,-1.9581,-1.9563,-1.9618,-1.9632,-1.9661,-1.9725,-1.9754,-1.9738,-1.9852,-1.9818,-1.9823,-1.9826,-1.9861,-1.9873,-1.9883,-1.9749,-1.9748,-1.9748,0,0,-1.9464,-1.9484,-1.9532,-1.9553,-1.9583,-1.959,-1.9602,-1.9629,-1.9636,-1.9693,-1.968,-1.9715,-1.9779,-1.98,-1.9819,-1.9904,-1.9892,-1.9916,-1.9958,-1.9994,-2.0004,-2.0012,-2.0041,-2.0052,-1.9923,-1.9923,-1.9923,0,-1.9498,-1.9558,-1.9559,-1.9603,-1.9625,-1.9611,-1.966,-1.968,-1.972,-1.9735,-1.9717,-1.9797,-1.9816,-1.9884,-1.9905,-1.9921,-1.9934,-1.9912,-2.0002,-2.0011,-2.0018,-2.0046,-2.0057,-1.9925,-1.9925,-1.9925,-1.9924,0,-1.9598,-1.964,-1.9676,-1.9715,-1.9741,-1.9788,-1.9795,-1.9822,-1.9818,-1.9827,-1.9884,-1.9906,-1.9945,-1.9962,-1.9959,-2.003,-2.0019,-2.0002,-1.9968,-2.0032,-2.0058,-2.0069,-1.9929,-1.9928,-1.9927,-1.9927,0,0,-1.9695,-1.9734,-1.9747,-1.9764,-1.9797,-1.9829,-1.9875,-1.9913,-1.9935,-1.9964,-2.0002,-2.0057,-2.0041,-2.0063,-2.0063,-2.0095,-2.0159,-2.0073,-2.0074,-2.0087,-2.0237,-2.0249,-2.0261,-2.0152,-2.0154,-2.0156,-2.0234,0,-1.9772,-1.9853,-1.9855,-1.9929,-1.9967,-1.9955,-1.9995,-2.0019,-2.0029,-2.0062,-2.0073,-2.0112,-2.0088,-2.0101,-2.0133,-2.0145,-2.0189,-2.0139,-2.0187,-2.0188,-2.0178,-2.0275,-2.0287,-2.036,-2.0245,-2.0246,-2.0248,0,-1.9873,-1.9905,-1.9982,-2.0009,-2.0025,-2.0061,-2.0096,-2.0129,-2.0156,-2.0161,-2.0185,-2.018,-2.0227,-2.0194,-2.0258,-2.0224,-2.0244,-2.0253,-2.0256,-2.0259,-2.0221,-2.0279,-2.0384,-2.0394,-2.0264,-2.0263,-2.0261,0,-1.9934,-1.9996,-2.005,-2.0066,-2.0098,-2.0124,-2.0139,-2.0164,-2.0187,-2.0218,-2.0232,-2.0269,-2.0288,-2.0317,-2.0322,-2.0297,-2.0386,-2.0353,-2.039,-2.039,-2.0408,-2.0407,-2.0516,-2.0424,-2.0424,-2.0423,-2.0423,0,-2.0019,-2.0067,-2.0078,-2.0111,-2.0164,-2.0166,-2.0219,-2.0232,-2.0254,-2.0289,-2.0282,-2.0315,-2.032,-2.0355,-2.0359,-2.0411,-2.042,-2.0425,-2.0425,-2.0425,-2.0424,-2.0436,-2.0431,-2.0426,-2.0426,-2.0425,-2.0425,0,-2.0095,-2.0105,-2.0163,-2.0189,-2.0197,-2.0235,-2.0257,-2.0289,-2.0298,-2.0343,-2.0354,-2.0368,-2.0408,-2.0416,-2.0464,-2.0467,-2.0529,-2.0525,-2.0519,-2.0518,-2.0555,-2.055,-2.0674,-2.069,-2.0589,-2.059,-2.0591,0,-2.0148,-2.0184,-2.0215,-2.0238,-2.0254,-2.0291,-2.0315,-2.0319,-2.0344,-2.0378,-2.0405,-2.0444,-2.0476,-2.0541,-2.0555,-2.0592,-2.0588,-2.0629,-2.0593,-2.0591,-2.0586,-2.0583,-2.0587,-2.0635,-2.0636,-2.0637,-2.0638,0,-2.0241,-2.0244,-2.0277,-2.0313,-2.0341,-2.037,-2.0397,-2.0416,-2.0424,-2.0452,-2.0493,-2.0518,-2.0567,-2.0605,-2.0642,-2.0657,-2.0648,-2.0649,-2.0659,-2.0658,-2.0653,-2.0655,-2.0536,-2.0646,-2.0645,-2.0644,-2.0644,-2.0644,-2.0306,-2.0337,-2.0363,-2.0401,-2.0422,-2.0447,-2.0478,-2.0491,-2.0526,-2.0565,-2.0566,-2.0611,-2.0637,-2.0685,-2.0703,-2.0738,-2.0725,-2.074,-2.0744,-2.0747,-2.0749,-2.0649,-2.0745,-2.0745,-2.0744,-2.0744,-2.0744,0,-2.0396,-2.0412,-2.0448,-2.0485,-2.0515,-2.0506,-2.0535,-2.056,-2.06,-2.0625,-2.0657,-2.0704,-2.0741,-2.076,-2.0797,-2.0821,-2.0818,-2.0831,-2.0828,-2.0831,-2.076,-2.0746,-2.0832,-2.0832,-2.0832,-2.0832,-2.0832,-2.0832,-2.0446,-2.0498,-2.0505,-2.0567,-2.0583,-2.0627,-2.0644,-2.0667,-2.0688,-2.074,-2.0772,-2.0784,-2.0806,-2.0845,-2.0879,-2.0884,-2.0897,-2.0911,-2.0913,-2.0846,-2.0837,-2.0828,-2.0815,-2.0914,-2.0914,-2.0982,-2.0982,-2.0983]},{"header":{"parameterUnit":"m.s-1","parameterCategory":1,"la1":30.2991,"la2":30.254,"lo1":-89.0895,"lo2":-89.0444,"dy":0.0017,"dx":0.0017,"nx":28,"ny":28,"refTime":"2025-12-13T03:00:00:Z","depth":0,"parameterNumber":3,"parameterNumberName":"V-component_of_WINDS"},"data":[0,0,0,0,0,0,0,0,0,0,0,0,0,0,0,0,0,0,0,0,0,0,0,0,0,0,0,0,0,0,0,0,0,0,0,0,0,0,0,0,0,0,0,0,0,0,0,0,0,0,0,0,0,0,0,0,0,0,0.2183,0.2184,0,0.227,0.2271,0.2272,0.23,0.23,0.2299,0.2299,0.2386,0.2389,0.2392,0,0,0,0,0,0,0,0,0,0,0,0,0,0.2039,0.2042,0.2183,0.2184,0.2185,0.227,0.2272,0.2273,0.23,0.23,0.2299,0.2299,0.2385,0.2389,0.2392,0,0,0,0,0,0,0,0,0,0,0,0,0,0.2112,0.2043,0.2183,0.2209,0.2212,0.227,0.2272,0.2273,0.23,0.23,0.2299,0.2298,0.2384,0.2388,0.2392,0.243,0,0,0.2405,0.2406,0,0,0,0,0,0,0,0,0.2107,0.2117,0.2204,0.2207,0.2211,0.2274,0.2253,0.2325,0.23,0.2267,0.2299,0.2298,0.2349,0.2356,0.2374,0.2434,0.2437,0.2405,0.2408,0.2409,0.241,0,0,0,0,0,0,0,0.2102,0.2113,0.2217,0.2205,0.221,0.2216,0.2226,0.2267,0.231,0.227,0.2272,0.2282,0.2351,0.237,0.2376,0.2439,0.2405,0.2409,0.2411,0.2413,0.2536,0.2537,0,0,0,0,0,0,0.2093,0.2109,0.2215,0.222,0.2157,0.222,0.223,0.2254,0.231,0.2318,0.2282,0.2283,0.2363,0.2371,0.2379,0.2428,0.2409,0.2413,0.2415,0.2535,0.2536,0.2537,0,0,0,0,0,0,0.209,0.2102,0.2211,0.2165,0.218,0.2223,0.2249,0.2256,0.2275,0.232,0.2327,0.2294,0.2363,0.2374,0.2418,0.2432,0.2415,0.2419,0.2534,0.2536,0.2537,0.2525,0,0,0,0,0,0,0.2086,0.2101,0.2115,0.2165,0.2182,0.2248,0.225,0.2258,0.2282,0.2284,0.2332,0.234,0.2363,0.2411,0.2422,0.2437,0.2422,0.2533,0.2535,0.2536,0.2525,0.2526,0.2527,0,0,0,0,0,0.208,0.2108,0.2116,0.2129,0.2201,0.2249,0.2258,0.2286,0.2283,0.2299,0.2327,0.2338,0.2428,0.2416,0.2427,0.2444,0.2532,0.2534,0.2536,0.2524,0.2526,0.2527,0,0,0,0,0,0,0.2057,0.2115,0.2124,0.2169,0.2204,0.2253,0.2273,0.2286,0.2322,0.2322,0.2354,0.2364,0.2406,0.243,0.2414,0.2484,0.2481,0.2485,0.2468,0.247,0.2471,0.2465,0.2425,0,0,0,0,0,0.2058,0.2092,0.214,0.2175,0.2192,0.223,0.2251,0.227,0.2307,0.2322,0.2354,0.2389,0.2426,0.2449,0.2485,0.2528,0.254,0.2546,0.2547,0.2548,0.2551,0.2578,0.2582,0.2543,0.2543,0.2543,0,0,0.2058,0.2094,0.2113,0.2171,0.22,0.2236,0.2242,0.2278,0.2305,0.2327,0.2371,0.2396,0.2437,0.2482,0.2503,0.2503,0.2565,0.255,0.2551,0.2554,0.258,0.2584,0.2587,0.2545,0.2544,0.2544,0,0,0.2078,0.2107,0.2141,0.217,0.2215,0.224,0.2248,0.2296,0.2314,0.2359,0.2377,0.2409,0.2471,0.2501,0.2524,0.2556,0.2568,0.2567,0.2574,0.2599,0.2603,0.2605,0.2618,0.2623,0.257,0.257,0.257,0,0.2072,0.2126,0.2156,0.2192,0.2218,0.2241,0.2275,0.2302,0.2356,0.2373,0.2372,0.2451,0.2481,0.2534,0.2542,0.2559,0.257,0.2562,0.26,0.2603,0.2606,0.2619,0.2624,0.257,0.257,0.257,0.257,0,0.2119,0.2156,0.2177,0.223,0.2258,0.2293,0.2328,0.2353,0.2369,0.2394,0.2441,0.2477,0.2522,0.2536,0.2551,0.2591,0.259,0.2594,0.2591,0.2609,0.2622,0.2627,0.2569,0.257,0.257,0.257,0,0,0.2125,0.2195,0.2203,0.2228,0.228,0.2309,0.2346,0.2391,0.2412,0.2448,0.248,0.2533,0.2538,0.2564,0.2583,0.2606,0.2632,0.2608,0.2609,0.2612,0.268,0.2677,0.2682,0.264,0.2641,0.2641,0.2677,0,0.2152,0.2219,0.2247,0.2301,0.2337,0.236,0.2392,0.2427,0.2453,0.2486,0.2514,0.2551,0.2554,0.2571,0.2594,0.2623,0.2646,0.2621,0.267,0.2671,0.266,0.2689,0.2686,0.2717,0.2682,0.2682,0.2683,0,0.2192,0.2231,0.2288,0.2338,0.2354,0.2382,0.2427,0.2459,0.25,0.2517,0.2547,0.2566,0.2605,0.26,0.2655,0.2638,0.266,0.2678,0.268,0.2686,0.2679,0.2697,0.2728,0.2733,0.2691,0.269,0.269,0,0.2193,0.2259,0.2303,0.2323,0.2382,0.2402,0.2427,0.2467,0.2493,0.2532,0.2549,0.2591,0.2615,0.2647,0.2677,0.267,0.273,0.2727,0.2746,0.2745,0.2758,0.2757,0.2794,0.277,0.277,0.277,0.277,0,0.222,0.2255,0.2304,0.2331,0.2371,0.2404,0.2442,0.2469,0.2505,0.2538,0.256,0.2591,0.2628,0.2663,0.2686,0.273,0.2739,0.2755,0.2761,0.2753,0.2752,0.2768,0.2767,0.2771,0.2771,0.2771,0.277,0,0.2228,0.2262,0.2311,0.2364,0.2378,0.2405,0.245,0.2477,0.2504,0.2545,0.2557,0.2598,0.2641,0.2674,0.2729,0.2745,0.2791,0.2797,0.2778,0.2781,0.2799,0.2797,0.2849,0.2858,0.2827,0.2827,0.2827,0,0.2244,0.2271,0.2327,0.2351,0.2377,0.2415,0.2442,0.2475,0.2502,0.2553,0.2574,0.2619,0.2656,0.2723,0.2759,0.2801,0.2809,0.2824,0.2815,0.2808,0.2811,0.2809,0.2813,0.2825,0.2825,0.2826,0.2826,0,0.2268,0.2285,0.2323,0.2368,0.24,0.2437,0.2474,0.2492,0.2532,0.2562,0.2607,0.2636,0.2693,0.2738,0.2784,0.281,0.2825,0.2828,0.2835,0.2828,0.2817,0.2825,0.2782,0.2827,0.2827,0.2827,0.2827,0.2827,0.2282,0.2308,0.2352,0.2395,0.2427,0.2461,0.249,0.2521,0.2559,0.2609,0.2627,0.2673,0.2715,0.278,0.2806,0.2843,0.2844,0.2853,0.2856,0.2858,0.2858,0.281,0.2851,0.2851,0.2851,0.2851,0.2851,0,0.2309,0.2339,0.2378,0.243,0.2464,0.2476,0.2518,0.2545,0.2586,0.2625,0.2662,0.2714,0.2758,0.2797,0.2842,0.2864,0.2873,0.2875,0.2875,0.2881,0.2854,0.2844,0.2868,0.2868,0.2868,0.2868,0.2868,0.2868,0.2327,0.2373,0.2395,0.2457,0.2487,0.2533,0.2557,0.2589,0.262,0.2678,0.2715,0.274,0.278,0.2828,0.2869,0.288,0.2896,0.2897,0.291,0.2884,0.2882,0.288,0.2871,0.29,0.29,0.2933,0.2933,0.2934]}]]